Location: La Coruña
(43.3623°N, 8.4115°W)
Time: 08:12:08
(UTC+01:00)

STARLINK-1110 - Pass Details

Date: 21 January 2020
Orbit: 348 x 351 km, 53.0° (Epoch: 22 February)

Event Time Altitude Azimuth Distance (km) Brightness Sun altitude
Rises 19:51:48 0° 280° (W) 2,175 8.0 -14.7°
Reaches altitude 10° 19:54:18 10° 302° (WNW) 1,333 6.2 -15.2°
Maximum altitude 19:56:20 17° 345° (NNW) 1,009 5.0 -15.5°
Enters shadow 19:57:13 15° 7° (N) 1,077 4.9 -15.7°
